User: anonymous   Login
Location: Ferma
(41.9500°N, 44.5167°E)
Time: 02:40:43
(UTC+00:00)
Language:

Okean-O - Orbit

View from above orbital plane
View from above orbital plane
View from above satellite
View from above satellite

Ground track
Ground track

The orbit data is extracted from the following two-line orbital elements,

1 25860U 99039A   22018.58934173  .00000268  00000-0  45754-4 0  9999
2 25860  98.1599  57.0043 0001488 112.1878 247.9489 14.76812167211136
Epoch (UTC): 18 January 2022 14:08:39
Eccentricity: 0.0001488
inclination: 98.1599°
perigee height: 638 km
apogee height: 640 km
right ascension of ascending node: 57.0043°
argument of perigee: 112.1878°
revolutions per day: 14.76812167
mean anomaly at epoch: 247.9489°
orbit number at epoch: 21113

The dashed part of the orbit path shows where the satellite is in the earth's shadow,  

DLR